When you browse on this site, cookies collect data to enhance your experience and personalize the content and advertising you see.
Visit our Privacy Policy to learn more. By continuing to use the site, you agree to this use of cookies and data.
  • In Hungary
  • List of Countries
  • For 7 days
  • Water Temperature
  • Satellite Maps
  • Weather Map
  • News
  • Weather Widgets
  • user-avatar
    Login

    Hourly Weather Calpulalpan

    Today, 17 February, Sunday

    Time Temperature Precipitation Wind Pressure Humidity
    00:00 +15°C° 0 mm 1 mps 556 mmHg 43%
    01:00 +14°C° 0 mm 1 mps 556 mmHg 42%
    02:00 +14°C° 0 mm 1 mps 556 mmHg 42%
    03:00 +14°C° 0 mm 1 mps 556 mmHg 42%
    04:00 +13°C° 0 mm 1 mps 555 mmHg 43%
    05:00 +13°C° 0 mm 1 mps 555 mmHg 43%
    06:00 +14°C° 0 mm 1 mps 556 mmHg 40%
    07:00 +16°C° 0 mm 1 mps 557 mmHg 37%
    08:00 +18°C° 0 mm 1 mps 559 mmHg 34%
    09:00 +19°C° 0 mm 2 mps 559 mmHg 29%
    10:00 +21°C° 0 mm 2 mps 560 mmHg 25%
    11:00 +25°C° 0 mm 2 mps 561 mmHg 21%
    12:00 +25°C° 0 mm 3 mps 561 mmHg 19%
    13:00 +26°C° 0 mm 3 mps 560 mmHg 17%
    14:00 +27°C° 0 mm 3 mps 560 mmHg 14%
    15:00 +26°C° 0 mm 3 mps 560 mmHg 17%
    16:00 +23°C° 0 mm 4 mps 559 mmHg 19%
    17:00 +22°C° 0 mm 4 mps 559 mmHg 22%
    18:00 +20°C° 0 mm 3 mps 559 mmHg 27%
    19:00 +18°C° 0 mm 3 mps 558 mmHg 31%
    20:00 +16°C° 0 mm 2 mps 558 mmHg 36%
    21:00 +16°C° 0 mm 2 mps 558 mmHg 37%
    22:00 +15°C° 0 mm 2 mps 558 mmHg 39%
    23:00 +14°C° 0 mm 2 mps 558 mmHg 40%

    Tomorrow, 18 February, Monday

    Time Temperature Precipitation Wind Pressure Humidity
    00:00 +14°C° 0 mm 1 mps 557 mmHg 43%
    01:00 +14°C° 0 mm 1 mps 557 mmHg 45%
    02:00 +13°C° 0 mm 1 mps 557 mmHg 48%
    03:00 +13°C° 0 mm 1 mps 556 mmHg 49%
    04:00 +12°C° 0 mm 1 mps 556 mmHg 50%
    05:00 +12°C° 0 mm 1 mps 556 mmHg 51%
    06:00 +13°C° 0 mm 1 mps 557 mmHg 45%
    07:00 +15°C° 0 mm 1 mps 559 mmHg 40%
    08:00 +18°C° 0 mm 1 mps 560 mmHg 35%
    09:00 +19°C° 0 mm 2 mps 561 mmHg 29%
    10:00 +20°C° 0 mm 2 mps 561 mmHg 24%
    11:00 +22°C° 0 mm 3 mps 562 mmHg 19%
    12:00 +24°C° 0 mm 3 mps 562 mmHg 18%
    13:00 +25°C° 0 mm 4 mps 561 mmHg 18%
    14:00 +25°C° 0 mm 5 mps 561 mmHg 17%
    15:00 +23°C° 0 mm 5 mps 561 mmHg 19%
    16:00 +22°C° 0 mm 5 mps 560 mmHg 21%
    17:00 +21°C° 0 mm 5 mps 559 mmHg 23%
    18:00 +19°C° 0 mm 4 mps 559 mmHg 26%
    19:00 +17°C° 0 mm 3 mps 559 mmHg 29%
    20:00 +15°C° 0 mm 2 mps 558 mmHg 32%
    21:00 +15°C° 0 mm 2 mps 558 mmHg 34%
    22:00 +14°C° 0 mm 2 mps 558 mmHg 35%
    23:00 +14°C° 0 mm 2 mps 558 mmHg 36%

    Day after tomorrow, 19 February, Tuesday

    Time Temperature Precipitation Wind Pressure Humidity
    00:00 +13°C° 0 mm 2 mps 557 mmHg 41%
    01:00 +13°C° 0 mm 2 mps 557 mmHg 45%
    02:00 +12°C° 0 mm 2 mps 556 mmHg 50%
    03:00 +12°C° 0 mm 2 mps 556 mmHg 51%
    04:00 +10°C° 0 mm 2 mps 556 mmHg 53%
    05:00 +11°C° 0 mm 1 mps 555 mmHg 54%
    06:00 +12°C° 0 mm 2 mps 556 mmHg 48%
    07:00 +14°C° 0 mm 2 mps 557 mmHg 43%
    08:00 +15°C° 0 mm 2 mps 559 mmHg 37%
    09:00 +17°C° 0 mm 3 mps 559 mmHg 30%
    10:00 +19°C° 0 mm 4 mps 560 mmHg 23%
    11:00 +21°C° 0 mm 4 mps 561 mmHg 17%
    12:00 +22°C° 0 mm 5 mps 560 mmHg 15%
    13:00 +22°C° 0 mm 5 mps 560 mmHg 13%
    14:00 +23°C° 0 mm 5 mps 559 mmHg 11%
    15:00 +22°C° 0 mm 5 mps 559 mmHg 14%
    16:00 +21°C° 0 mm 5 mps 558 mmHg 16%
    17:00 +20°C° 0 mm 4 mps 557 mmHg 19%
    18:00 +18°C° 0 mm 4 mps 557 mmHg 24%
    19:00 +16°C° 0 mm 3 mps 557 mmHg 28%
    20:00 +13°C° 0 mm 3 mps 556 mmHg 33%
    21:00 +14°C° 0 mm 2 mps 556 mmHg 36%
    22:00 +13°C° 0 mm 2 mps 556 mmHg 38%
    23:00 +13°C° 0 mm 2 mps 556 mmHg 41%

    20 February, Wednesday

    Time Temperature Precipitation Wind Pressure Humidity
    00:00 +12°C° 0 mm 2 mps 555 mmHg 44%
    01:00 +12°C° 0 mm 2 mps 555 mmHg 47%
    02:00 +10°C° 0 mm 2 mps 554 mmHg 50%
    03:00 +11°C° 0 mm 1 mps 554 mmHg 52%
    04:00 +10°C° 0 mm 1 mps 554 mmHg 53%
    05:00 +10°C° 0 mm 1 mps 554 mmHg 55%
    06:00 +11°C° 0 mm 1 mps 555 mmHg 50%
    07:00 +13°C° 0 mm 2 mps 556 mmHg 45%
    08:00 +14°C° 0 mm 2 mps 557 mmHg 40%
    09:00 +16°C° 0 mm 2 mps 558 mmHg 34%
    10:00 +19°C° 0 mm 3 mps 559 mmHg 27%
    11:00 +21°C° 0 mm 3 mps 559 mmHg 20%
    12:00 +21°C° 0 mm 4 mps 559 mmHg 18%
    13:00 +22°C° 0 mm 4 mps 559 mmHg 16%
    14:00 +23°C° 0 mm 5 mps 558 mmHg 14%
    15:00 +22°C° 0 mm 5 mps 558 mmHg 15%
    16:00 +21°C° 0 mm 5 mps 557 mmHg 16%
    17:00 +19°C° 0 mm 5 mps 557 mmHg 18%
    18:00 +18°C° 0 mm 4 mps 557 mmHg 21%
    19:00 +15°C° 0 mm 4 mps 556 mmHg 25%
    20:00 +13°C° 0 mm 3 mps 556 mmHg 28%
    21:00 +13°C° 0 mm 2 mps 556 mmHg 30%
    22:00 +13°C° 0 mm 2 mps 555 mmHg 32%
    23:00 +12°C° 0 mm 2 mps 555 mmHg 35%

    21 February, Thursday

    Time Temperature Precipitation Wind Pressure Humidity
    00:00 +12°C° 0 mm 2 mps 555 mmHg 37%
    01:00 +10°C° 0 mm 2 mps 554 mmHg 40%
    02:00 +10°C° 0 mm 2 mps 554 mmHg 42%
    03:00 +9°C° 0 mm 2 mps 554 mmHg 43%
    04:00 +9°C° 0 mm 2 mps 554 mmHg 43%
    05:00 +8°C° 0 mm 2 mps 554 mmHg 43%
    06:00 +10°C° 0 mm 2 mps 555 mmHg 38%
    07:00 +13°C° 0 mm 2 mps 556 mmHg 33%
    08:00 +15°C° 0 mm 2 mps 557 mmHg 29%
    09:00 +17°C° 0 mm 3 mps 558 mmHg 24%
    10:00 +19°C° 0 mm 4 mps 559 mmHg 20%
    11:00 +21°C° 0 mm 4 mps 560 mmHg 15%
    12:00 +22°C° 0 mm 4 mps 559 mmHg 15%
    13:00 +22°C° 0 mm 4 mps 559 mmHg 15%
    14:00 +23°C° 0 mm 4 mps 559 mmHg 15%
    15:00 +22°C° 0 mm 4 mps 558 mmHg 17%
    16:00 +21°C° 0 mm 4 mps 558 mmHg 19%
    17:00 +20°C° 0 mm 4 mps 558 mmHg 21%
    18:00 +18°C° 0 mm 3 mps 558 mmHg 25%
    19:00 +17°C° 0 mm 3 mps 557 mmHg 29%
    20:00 +15°C° 0 mm 2 mps 557 mmHg 33%
    21:00 +14°C° 0 mm 2 mps 557 mmHg 35%
    22:00 +14°C° 0 mm 1 mps 556 mmHg 37%
    23:00 +13°C° 0 mm 1 mps 556 mmHg 38%

    22 February, Friday

    Time Temperature Precipitation Wind Pressure Humidity
    00:00 +12°C° 0 mm 1 mps 556 mmHg 40%
    01:00 +12°C° 0 mm 1 mps 555 mmHg 41%
    02:00 +11°C° 0 mm 0 mps 555 mmHg 42%
    03:00 +10°C° 0 mm 0 mps 555 mmHg 43%
    04:00 +10°C° 0 mm 0 mps 555 mmHg 44%
    05:00 +10°C° 0 mm 0 mps 555 mmHg 45%
    06:00 +11°C° 0 mm 0 mps 556 mmHg 41%
    07:00 +13°C° 0 mm 0 mps 558 mmHg 37%
    08:00 +15°C° 0 mm 0 mps 559 mmHg 32%
    09:00 +19°C° 0 mm 1 mps 560 mmHg 28%
    10:00 +21°C° 0 mm 1 mps 560 mmHg 24%
    11:00 +23°C° 0 mm 1 mps 561 mmHg 20%
    12:00 +23°C° 0 mm 1 mps 561 mmHg 19%
    13:00 +24°C° 0 mm 2 mps 560 mmHg 18%
    14:00 +24°C° 0 mm 2 mps 560 mmHg 17%
    15:00 +24°C° 0 mm 2 mps 560 mmHg 19%
    16:00 +22°C° 0 mm 3 mps 560 mmHg 22%
    17:00 +22°C° 0 mm 3 mps 560 mmHg 24%
    18:00 +20°C° 0 mm 2 mps 559 mmHg 30%
    19:00 +18°C° 0 mm 2 mps 559 mmHg 36%
    20:00 +16°C° 0 mm 1 mps 558 mmHg 42%
    21:00 +16°C° 0 mm 1 mps 558 mmHg 43%
    22:00 +15°C° 0 mm 1 mps 558 mmHg 44%
    23:00 +15°C° 0 mm 1 mps 558 mmHg 46%
    Show more